Wind_Speed
31 34 35 29 26 25 26 25 24 23 23 24 21 22 31 24 20 18 16 14 15 13
31 34 35 28 23 24 25 25 24 23 23 22 20 23 29 23 20 18 18 17 15 17
31 33 33 27 24 25 26 25 24 23 24 21 21 26 26 22 20 18 18 18 16 16
29 33 32 28 26 27 26 26 24 23 24 22 23 26 26 22 20 18 19 18 18 16
27 31 30 28 27 26 26 25 25 23 23 25 23 28 29 23 20 18 19 19 19 18
26 31 29 27 27 28 26 25 24 25 23 23 27 30 28 23 20 19 18 18 19 18
26 30 27 26 26 27 26 25 24 25 24 23 27 29 28 23 20 20 19 19 19 19
25 28 25 25 25 26 27 25 24 24 25 24 27 30 27 24 21 21 20 20 21 20
25 27 25 23 24 24 26 25 25 26 25 25 27 28 27 23 21 22 22 23 23 22
25 26 23 21 22 23 25 25 25 26 25 25 27 27 26 25 23 23 22 21 24 25
25 24 21 20 20 22 23 25 25 26 26 24 26 27 26 25 25 25 24 23 23 25
23 21 20 19 20 20 20 22 23 25 25 25 26 26 27 27 26 26 25 24 24 24
20 20 20 19 19 19 18 22 21 22 24 24 25 26 27 28 29 29 27 25 24 24
19 19 20 18 19 19 19 20 20 20 22 25 25 24 25 27 28 29 28 26 25 24
Wind_Direction
3 2 0 1 0 2 3 2 0 356 358 1 1 350 352 358 20 21 18 7 7 357
2 2 1 2 0 2 3 1 0 1 2 3 6 352 350 1 19 17 15 10 357 358
359 1 2 2 3 7 4 2 1 5 6 7 359 355 360 9 21 15 16 8 7 358
359 0 3 5 9 4 1 2 3 5 5 11 355 2 13 19 18 15 10 11 13 4
358 2 4 6 8 2 3 4 4 5 9 10 12 17 13 17 17 20 11 8 10 8
0 4 5 6 4 4 5 6 8 8 12 11 22 19 13 17 16 21 20 14 11 10
2 4 5 6 6 7 11 11 12 13 13 19 26 22 13 16 23 23 23 19 14 13
2 3 6 7 8 10 16 17 14 15 16 19 28 21 14 16 23 22 22 19 15 11
0 3 7 8 9 12 16 17 16 17 16 19 26 19 19 23 26 24 22 19 13 17
2 3 7 10 12 15 17 17 19 18 17 21 25 20 23 26 29 27 25 21 16 18
3 3 8 13 15 18 18 19 20 19 17 23 24 21 22 25 29 30 27 22 19 17
8 8 11 16 16 16 16 21 23 20 19 24 25 23 19 22 24 26 29 26 23 19
16 18 19 17 17 16 15 25 21 23 23 26 27 26 22 20 22 22 22 26 26 27
22 24 23 19 18 18 24 23 24 25 26 29 26 29 25 23 22 18 17 20 23 25
Height
1545 1539 1532 1526 1521 1516 1511 1506 1501 1496 1491 1486 1480 1476 1470 1465 1462 1459 1458 1455 1453 1452
1545 1539 1532 1527 1522 1516 1512 1507 1502 1496 1491 1486 1482 1477 1471 1464 1460 1459 1457 1455 1451 1447
1545 1540 1533 1527 1521 1516 1512 1507 1502 1497 1492 1487 1483 1477 1471 1465 1462 1460 1457 1454 1452 1449
1546 1539 1533 1526 1521 1517 1512 1507 1502 1497 1493 1487 1483 1477 1472 1468 1464 1460 1457 1455 1453 1450
1546 1540 1533 1527 1522 1518 1512 1507 1502 1497 1493 1488 1483 1477 1473 1469 1466 1463 1459 1455 1451 1448
1545 1539 1533 1527 1522 1518 1513 1508 1503 1498 1493 1489 1484 1480 1475 1471 1467 1464 1462 1459 1455 1452
1545 1540 1534 1529 1524 1519 1513 1508 1504 1499 1494 1490 1486 1482 1477 1473 1469 1466 1463 1461 1456 1453
1546 1541 1536 1530 1525 1520 1515 1510 1505 1501 1496 1492 1487 1484 1480 1475 1471 1467 1464 1461 1460 1455
1547 1541 1536 1532 1527 1522 1517 1512 1507 1502 1498 1493 1489 1486 1482 1478 1473 1470 1465 1461 1458 1454
1546 1541 1537 1533 1528 1523 1519 1514 1509 1504 1500 1495 1491 1488 1484 1480 1475 1471 1467 1464 1460 1455
1546 1541 1537 1533 1529 1525 1521 1516 1512 1507 1502 1498 1493 1490 1486 1482 1478 1474 1470 1465 1460 1454
1546 1542 1538 1534 1531 1527 1523 1519 1514 1510 1505 1500 1496 1492 1488 1483 1479 1475 1472 1469 1464 1459
1547 1543 1539 1535 1532 1529 1526 1522 1517 1513 1509 1504 1499 1494 1490 1485 1480 1476 1473 1471 1467 1461
1548 1545 1541 1538 1534 1530 1527 1524 1520 1515 1511 1507 1502 1498 1493 1489 1484 1479 1476 1471 1467 1463